FLOCK 2P-12

Last updated on Wed Feb 14 2018 16:19:51 GMT+0000 (Coordinated Universal Time)

1 41614U 16040R 18044.89343093 .00003168 00000-0 13404-3 0 9996 2 41614 97.4333 110.9446 0009166 322.0749 37.9842 15.23907488 91461
UTC large
Height (km)
Speed (km/s)
/
Latitude / Longitude
Inclination (degrees)
Orbital Period (minutes)
Azimuth
Elevation
Range (km)
Doppler Factor

Next 0 passes for location: London (51.5072 / 0.1276)

Sorry there are no passes over London.